Home   Weather   Lahore   Past weeks

Flag for Pakistan Past Weather in Lahore, Pakistan — Yesterday and Last 2 Weeks

Now
97 °F

Passing clouds.


Feels Like: 110 °F
Forecast: 80 / 103 °F
Wind: No wind

Location: Lahore Airport

Current Time: Aug 17, 2017 at 11:25:40 am

Latest Report: Aug 17, 2017 at 10:25 am


Visibility: 4 mi

Pressure: 29.56 "Hg

Humidity: 50%

Dew Point: 75 °F

Location of LahoreLocation

Past Weather in Lahore — Graph

°F

Lahore Temperature Yesterday

Maximum temperature yesterday: 99 °F (at 12:25 pm)
Minimum temperature yesterday: 82 °F (at 5:59 am)
Average temperature yesterday: 91 °F

High & Low Weather Summary for the Past Weeks

 TemperatureHumidityPressure
High104 °F (Aug 11, 2:55 pm)100% (Aug 6, 2:30 pm)29.77 "Hg (Aug 6, 2:30 pm)
Low73 °F (Aug 14, 4:55 am)36% (Aug 15, 2:30 pm)29.36 "Hg (Aug 4, 2:25 am)
Average90 °F66%29.54 "Hg
* Reported Aug 2 9:25 am — Aug 17 9:55 am, Lahore. Weather by CustomWeather, © 2017

Note: Actual official high and low records may vary slightly from our data, if they occured in-between our weather recording intervals... More about our weather records

Advertising

Lahore Weather History for the Previous 24 Hours

Scroll right to see more
 ConditionsComfort  
Time TempWeatherWind HumidityBarometerVisibility
9:55 am
Thu, Aug 17
97 °FPassing clouds.3 mph50%29.56 "Hg4 mi
9:25 am93 °FClear.No wind56%29.56 "Hg4 mi
8:55 am93 °FClear.No wind56%29.53 "Hg4 mi
8:25 am90 °FClear.5 mph67%29.53 "Hg4 mi
7:25 am84 °FClear.6 mph74%29.53 "Hg2 mi
6:25 am84 °FClear.5 mph74%29.53 "Hg2 mi
5:55 am82 °FClear.5 mph79%29.53 "Hg2 mi
4:55 am82 °FClear.6 mph79%29.50 "Hg2 mi
4:25 am84 °FClear.7 mph74%29.50 "Hg2 mi
3:55 am84 °FClear.3 mph74%29.50 "Hg2 mi
3:25 am84 °FClear.3 mph70%29.50 "Hg3 mi
2:55 am84 °FClear.3 mph70%29.50 "Hg3 mi
2:25 am84 °FClear.No wind70%29.50 "Hg3 mi
1:55 am84 °FClear.3 mph70%29.50 "Hg3 mi
1:25 am86 °FClear.3 mph66%29.50 "Hg3 mi
12:55 am86 °FClear.3 mph66%29.50 "Hg3 mi
12:25 am86 °FClear.3 mph66%29.50 "Hg3 mi
11:25 pm
Wed, Aug 16
88 °FClear.5 mph62%29.50 "Hg3 mi
10:55 pm88 °FSprinkles. Smoke.5 mph62%29.50 "Hg3 mi
10:25 pm90 °FClear.5 mph59%29.53 "Hg3 mi
9:55 pm90 °FSprinkles. Smoke.6 mph59%29.53 "Hg3 mi
9:25 pm91 °FClear.N/A56%29.53 "Hg3 mi
8:55 pm91 °FClear.7 mph52%29.53 "Hg3 mi
8:30 pm93 °FClear.3 mph49%29.50 "Hg3 mi
7:55 pm93 °FClear.No wind49%29.50 "Hg4 mi
7:25 pm95 °FClear.No wind44%29.50 "Hg4 mi
6:55 pm95 °FClear.3 mph44%29.50 "Hg4 mi
5:55 pm99 °FClear.5 mph44%29.50 "Hg4 mi
5:28 pm99 °FPassing clouds.7 mph44%29.50 "Hg4 mi
4:55 pm99 °FPassing clouds.7 mph44%29.53 "Hg4 mi
4:25 pm95 °FScattered clouds.3 mph50%29.53 "Hg4 mi
3:55 pm95 °FScattered clouds.5 mph47%29.53 "Hg4 mi
3:25 pm95 °FScattered clouds.5 mph47%29.53 "Hg4 mi
2:55 pm97 °FScattered clouds.5 mph44%29.56 "Hg4 mi
1:55 pm97 °FScattered clouds.6 mph44%29.56 "Hg4 mi
1:25 pm99 °FScattered clouds.5 mph44%29.59 "Hg4 mi
12:55 pm99 °FScattered clouds.No wind44%29.59 "Hg4 mi
12:25 pm99 °FScattered clouds.5 mph42%29.59 "Hg4 mi
11:55 am97 °FScattered clouds.3 mph44%29.59 "Hg4 mi
11:25 am97 °FScattered clouds.No wind44%29.62 "Hg5 mi
Weather by CustomWeather, © 2017

See weather overviewHow to use our weather pages